DELTA 1 DEB, 12527

Orbit data source: Space-Track

DELTA 1 DEB, 12527 is space debris in SSO originally from a launch on Thu, 29 Jul 1976 UTC launched from the Air Force Western Test Range (AFWTR). Debris objects in space refer to the collection of defunct objects orbiting the Earth. Examples of debris include non-operational satellites, rocket bodies, and fragments generated from explosions, collisions, or faulty payload assembly.

Loading next visibility...
Identifier
12527, 1976-077DG
Orbit
SSO
Country
Flag of USUS
Related business
Manufacturer
Unknown
Mission
Spacecraft
Bus & Motor
Unknown
Mass
Unknown
Launch date (UTC)
1976-07-29 (49 years ago)
Launch vehicle
Unknown
Launch site
Air Force Western Test Range (AFWTR)
Object type
Payload
Rocket body
Debris
Shape & HBR
Unknown shape, 0.1 m
Radar Cross Section
Medium (>0.1 m² and <1 m²)

Expand to show TLE details & history
Last TLE update: 2 days ago

TLE from 2 days ago
0 DELTA 1 DEB
1 12527U 76077DG  25301.17843939  .00000022  00000-0  51189-3 0  9990
2 12527 102.1218 268.1763 0038434 103.5783 280.0866 12.38079555123243
Epoch: 2025-10-28T04:16Z
TLE epoch observation values (Epoch: 2025-10-28T04:16:57.163Z)
Latitude
22.70193°
Longitude
162.03858°
Altitude
1,511.977 km
Speed
7.113 km/s
True Right ascension
17h 32m 11s
True Declination
22° 35' 29"
Sunlit
Object was in daylight at epoch
Visualization orbit readout
Latitude
Unknown
Longitude
Unknown
Altitude
Unknown
Speed
Unknown
Apparent Right ascension
Unknown
Apparent Declination
Unknown
Sunlit
N/A
Visualization observer readout
Local Sidereal Time
13:05:15
Azimuth
Unknown
Elevation
Unknown
Doppler factor
Unknown
Orbital elements
Apogee altitude
1,542.665 km
Perigee altitude
1,482.013 km
Semi-major axis
7,890.476 km
Eccentricity
0.00384
Inclination
102.1218°
RAAN
268.1763°
Arg. of periapsis
103.5783°
True anomaly
279.65262°
Mean anomaly
280.0866°
Eccentric anomaly
279.86965°
Mean motion
3.09662 °/min
Orbital period
116.26 mins
BSTAR
0.00051189
Loading maneuver chart data...
Computing Atmospheric mass density...
Loading historical data...
Loading historical data...
Loading historical data...
Loading historical data...
Loading historical data...
Loading historical data...
Loading historical data...

Documentation

Showing up to 5 results
|